Year,Month,Day,Hour,Minute,Value (Times are PST for temperature in C)
2006,07,23,00,00,21.60
2006,07,23,00,01,21.60
2006,07,23,00,02,21.60
2006,07,23,00,03,21.50
2006,07,23,00,04,21.50
2006,07,23,00,05,21.50
2006,07,23,00,06,21.40
2006,07,23,00,07,21.40
2006,07,23,00,08,21.40
2006,07,23,00,09,21.40
2006,07,23,00,10,21.40
2006,07,23,00,11,21.40
2006,07,23,00,12,21.40
2006,07,23,00,13,21.40
2006,07,23,00,14,21.40
2006,07,23,00,15,21.40
2006,07,23,00,16,21.40
2006,07,23,00,17,21.40
2006,07,23,00,18,21.40
2006,07,23,00,19,21.40
2006,07,23,00,20,21.40
2006,07,23,00,21,21.30
2006,07,23,00,22,21.30
2006,07,23,00,23,21.30
2006,07,23,00,24,21.30
2006,07,23,00,25,21.30
2006,07,23,00,26,21.20
2006,07,23,00,27,21.20
2006,07,23,00,28,21.20
2006,07,23,00,29,21.20
2006,07,23,00,30,21.20
2006,07,23,00,31,21.10
2006,07,23,00,32,21.10
2006,07,23,00,33,21.10
2006,07,23,00,34,21.10
2006,07,23,00,35,21.10
2006,07,23,00,36,21.10
2006,07,23,00,37,21.10
2006,07,23,00,38,21.10
2006,07,23,00,39,21.10
2006,07,23,00,40,21.10
2006,07,23,00,41,21.10
2006,07,23,00,42,21.00
2006,07,23,00,43,21.00
2006,07,23,00,44,21.00
2006,07,23,00,45,21.00
2006,07,23,00,46,21.00
2006,07,23,00,47,21.00
2006,07,23,00,48,21.00
2006,07,23,00,49,21.00
2006,07,23,00,50,20.90
2006,07,23,00,51,20.90
2006,07,23,00,52,20.90
2006,07,23,00,53,20.90
2006,07,23,00,54,20.90
2006,07,23,00,55,20.90
2006,07,23,00,56,20.90
2006,07,23,00,57,20.90
2006,07,23,00,58,20.90
2006,07,23,00,59,20.90
2006,07,23,01,00,20.90
2006,07,23,01,01,20.90
2006,07,23,01,02,20.90
2006,07,23,01,03,20.90
2006,07,23,01,04,20.90
2006,07,23,01,05,20.80
2006,07,23,01,06,20.80
2006,07,23,01,07,20.80
2006,07,23,01,08,20.80
2006,07,23,01,09,20.70
2006,07,23,01,10,20.70
2006,07,23,01,11,20.70
2006,07,23,01,12,20.70
2006,07,23,01,13,20.70
2006,07,23,01,14,20.70
2006,07,23,01,15,20.70
2006,07,23,01,16,20.60
2006,07,23,01,17,20.60
2006,07,23,01,18,20.60
2006,07,23,01,19,20.60
2006,07,23,01,20,20.60
2006,07,23,01,21,20.60
2006,07,23,01,22,20.60
2006,07,23,01,23,20.60
2006,07,23,01,24,20.60
2006,07,23,01,25,20.60
2006,07,23,01,26,20.50
2006,07,23,01,27,20.50
2006,07,23,01,28,20.50
2006,07,23,01,29,20.50
2006,07,23,01,30,20.50
2006,07,23,01,31,20.50
2006,07,23,01,32,20.40
2006,07,23,01,33,20.40
2006,07,23,01,34,20.40
2006,07,23,01,35,20.40
2006,07,23,01,36,20.40
2006,07,23,01,37,20.40
2006,07,23,01,38,20.40
2006,07,23,01,39,20.40
2006,07,23,01,40,20.40
2006,07,23,01,41,20.40
2006,07,23,01,42,20.40
2006,07,23,01,43,20.50
2006,07,23,01,44,20.50
2006,07,23,01,45,20.50
2006,07,23,01,46,20.50
2006,07,23,01,47,20.50
2006,07,23,01,48,20.60
2006,07,23,01,49,20.60
2006,07,23,01,50,20.60
2006,07,23,01,51,20.60
2006,07,23,01,52,20.70
2006,07,23,01,53,20.70
2006,07,23,01,54,20.80
2006,07,23,01,55,20.90
2006,07,23,01,56,20.90
2006,07,23,01,57,21.00
2006,07,23,01,58,21.00
2006,07,23,01,59,21.00
2006,07,23,02,00,21.00
2006,07,23,02,01,21.00
2006,07,23,02,02,21.00
2006,07,23,02,03,21.10
2006,07,23,02,04,21.10
2006,07,23,02,05,21.10
2006,07,23,02,06,21.10
2006,07,23,02,07,21.10
2006,07,23,02,08,21.10
2006,07,23,02,09,21.10
2006,07,23,02,10,21.00
2006,07,23,02,11,21.00
2006,07,23,02,12,20.90
2006,07,23,02,13,20.90
2006,07,23,02,14,20.90
2006,07,23,02,15,20.90
2006,07,23,02,16,20.80
2006,07,23,02,17,20.80
2006,07,23,02,18,20.80
2006,07,23,02,19,20.80
2006,07,23,02,20,20.80
2006,07,23,02,21,20.70
2006,07,23,02,22,20.70
2006,07,23,02,23,20.60
2006,07,23,02,24,20.60
2006,07,23,02,25,20.60
2006,07,23,02,26,20.50
2006,07,23,02,27,20.50
2006,07,23,02,28,20.50
2006,07,23,02,29,20.40
2006,07,23,02,30,20.40
2006,07,23,02,31,20.40
2006,07,23,02,32,20.30
2006,07,23,02,33,20.30
2006,07,23,02,34,20.30
2006,07,23,02,35,20.20
2006,07,23,02,36,20.20
2006,07,23,02,37,20.20
2006,07,23,02,38,20.10
2006,07,23,02,39,20.10
2006,07,23,02,40,20.10
2006,07,23,02,41,20.10
2006,07,23,02,42,20.10
2006,07,23,02,43,20.10
2006,07,23,02,44,20.10
2006,07,23,02,45,20.10
2006,07,23,02,46,20.10
2006,07,23,02,47,20.10
2006,07,23,02,48,20.10
2006,07,23,02,49,20.20
2006,07,23,02,50,20.20
2006,07,23,02,51,20.20
2006,07,23,02,52,20.30
2006,07,23,02,53,20.30
2006,07,23,02,54,20.40
2006,07,23,02,55,20.50
2006,07,23,02,56,20.70
2006,07,23,02,57,20.80
2006,07,23,02,58,20.80
2006,07,23,02,59,20.90
2006,07,23,03,00,20.80
2006,07,23,03,01,20.80
2006,07,23,03,02,20.80
2006,07,23,03,03,20.70
2006,07,23,03,04,20.70
2006,07,23,03,05,20.70
2006,07,23,03,06,20.70
2006,07,23,03,07,20.70
2006,07,23,03,08,20.70
2006,07,23,03,09,20.70
2006,07,23,03,10,20.80
2006,07,23,03,11,20.80
2006,07,23,03,12,20.80
2006,07,23,03,13,20.80
2006,07,23,03,14,20.80
2006,07,23,03,15,20.80
2006,07,23,03,16,20.70
2006,07,23,03,17,20.70
2006,07,23,03,18,20.60
2006,07,23,03,19,20.50
2006,07,23,03,20,20.50
2006,07,23,03,21,20.40
2006,07,23,03,22,20.30
2006,07,23,03,23,20.30
2006,07,23,03,24,20.20
2006,07,23,03,25,20.20
2006,07,23,03,26,20.10
2006,07,23,03,27,20.00
2006,07,23,03,28,19.90
2006,07,23,03,29,19.80
2006,07,23,03,30,19.80
2006,07,23,03,31,19.70
2006,07,23,03,32,19.60
2006,07,23,03,33,19.50
2006,07,23,03,34,19.40
2006,07,23,03,35,19.40
2006,07,23,03,36,19.30
2006,07,23,03,37,19.30
2006,07,23,03,38,19.30
2006,07,23,03,39,19.30
2006,07,23,03,40,19.30
2006,07,23,03,41,19.30
2006,07,23,03,42,19.20
2006,07,23,03,43,19.20
2006,07,23,03,44,19.20
2006,07,23,03,45,19.20
2006,07,23,03,46,19.20
2006,07,23,03,47,19.20
2006,07,23,03,48,19.30
2006,07,23,03,49,19.30
2006,07,23,03,50,19.30
2006,07,23,03,51,19.20
2006,07,23,03,52,19.20
2006,07,23,03,53,19.20
2006,07,23,03,54,19.10
2006,07,23,03,55,19.10
2006,07,23,03,56,19.00
2006,07,23,03,57,19.00
2006,07,23,03,58,19.00
2006,07,23,03,59,19.00
2006,07,23,04,00,19.00
2006,07,23,04,01,19.00
2006,07,23,04,02,19.00
2006,07,23,04,03,18.90
2006,07,23,04,04,18.90
2006,07,23,04,05,18.90
2006,07,23,04,06,18.90
2006,07,23,04,07,18.90
2006,07,23,04,08,18.90
2006,07,23,04,09,18.90
2006,07,23,04,10,18.80
2006,07,23,04,11,18.80
2006,07,23,04,12,18.80
2006,07,23,04,13,18.80
2006,07,23,04,14,18.70
2006,07,23,04,15,18.70
2006,07,23,04,16,18.70
2006,07,23,04,17,18.70
2006,07,23,04,18,18.60
2006,07,23,04,19,18.60
2006,07,23,04,20,18.60
2006,07,23,04,21,18.60
2006,07,23,04,22,18.60
2006,07,23,04,23,18.60
2006,07,23,04,24,18.60
2006,07,23,04,25,18.70
2006,07,23,04,26,18.70
2006,07,23,04,27,18.70
2006,07,23,04,28,18.70
2006,07,23,04,29,18.60
2006,07,23,04,30,18.60
2006,07,23,04,31,18.60
2006,07,23,04,32,18.50
2006,07,23,04,33,18.50
2006,07,23,04,34,18.40
2006,07,23,04,35,18.40
2006,07,23,04,36,18.40
2006,07,23,04,37,18.30
2006,07,23,04,38,18.30
2006,07,23,04,39,18.30
2006,07,23,04,40,18.30
2006,07,23,04,41,18.30
2006,07,23,04,42,18.30
2006,07,23,04,43,18.30
2006,07,23,04,44,18.30
2006,07,23,04,45,18.30
2006,07,23,04,46,18.30
2006,07,23,04,47,18.40
2006,07,23,04,48,18.40
2006,07,23,04,49,18.40
2006,07,23,04,50,18.40
2006,07,23,04,51,18.40
2006,07,23,04,52,18.40
2006,07,23,04,53,18.40
2006,07,23,04,54,18.40
2006,07,23,04,55,18.40
2006,07,23,04,56,18.40
2006,07,23,04,57,18.30
2006,07,23,04,58,18.30
2006,07,23,04,59,18.30
2006,07,23,05,00,18.30
2006,07,23,05,01,18.30
2006,07,23,05,02,18.30
2006,07,23,05,03,18.40
2006,07,23,05,04,18.40
2006,07,23,05,05,18.40
2006,07,23,05,06,18.40
2006,07,23,05,07,18.40
2006,07,23,05,08,18.40
2006,07,23,05,09,18.40
2006,07,23,05,10,18.40
2006,07,23,05,11,18.40
2006,07,23,05,12,18.40
2006,07,23,05,13,18.40
2006,07,23,05,14,18.40
2006,07,23,05,15,18.40
2006,07,23,05,16,18.40
2006,07,23,05,17,18.40
2006,07,23,05,18,18.30
2006,07,23,05,19,18.30
2006,07,23,05,20,18.30
2006,07,23,05,21,18.30
2006,07,23,05,22,18.30
2006,07,23,05,23,18.20
2006,07,23,05,24,18.20
2006,07,23,05,25,18.20
2006,07,23,05,26,18.20
2006,07,23,05,27,18.10
2006,07,23,05,28,18.10
2006,07,23,05,29,18.10
2006,07,23,05,30,18.10
2006,07,23,05,31,18.10
2006,07,23,05,32,18.10
2006,07,23,05,33,18.20
2006,07,23,05,34,18.20
2006,07,23,05,35,18.20
2006,07,23,05,36,18.20
2006,07,23,05,37,18.20
2006,07,23,05,38,18.20
2006,07,23,05,39,18.20
2006,07,23,05,40,18.20
2006,07,23,05,41,18.20
2006,07,23,05,42,18.20
2006,07,23,05,43,18.10
2006,07,23,05,44,18.10
2006,07,23,05,45,18.00
2006,07,23,05,46,18.00
2006,07,23,05,47,18.00
2006,07,23,05,48,17.90
2006,07,23,05,49,17.90
2006,07,23,05,50,17.90
2006,07,23,05,51,17.90
2006,07,23,05,52,17.90
2006,07,23,05,53,17.90
2006,07,23,05,54,17.90
2006,07,23,05,55,18.00
2006,07,23,05,56,18.00
2006,07,23,05,57,18.00
2006,07,23,05,58,18.00
2006,07,23,05,59,18.00
2006,07,23,06,00,18.00
2006,07,23,06,01,17.90
2006,07,23,06,02,17.90
2006,07,23,06,03,17.90
2006,07,23,06,04,17.90
2006,07,23,06,05,17.90
2006,07,23,06,06,17.80
2006,07,23,06,07,17.80
2006,07,23,06,08,17.90
2006,07,23,06,09,17.90
2006,07,23,06,10,17.90
2006,07,23,06,11,17.90
2006,07,23,06,12,17.90
2006,07,23,06,13,17.90
2006,07,23,06,14,17.90
2006,07,23,06,15,17.90
2006,07,23,06,16,18.00
2006,07,23,06,17,18.10
2006,07,23,06,18,18.10
2006,07,23,06,19,18.20
2006,07,23,06,20,18.20
2006,07,23,06,21,18.30
2006,07,23,06,22,18.30
2006,07,23,06,23,18.30
2006,07,23,06,24,18.30
2006,07,23,06,25,18.30
2006,07,23,06,26,18.40
2006,07,23,06,27,18.40
2006,07,23,06,28,18.40
2006,07,23,06,29,18.40
2006,07,23,06,30,18.50
2006,07,23,06,31,18.60
2006,07,23,06,32,18.60
2006,07,23,06,33,18.60
2006,07,23,06,34,18.60
2006,07,23,06,35,18.60
2006,07,23,06,36,18.70
2006,07,23,06,37,18.70
2006,07,23,06,38,18.70
2006,07,23,06,39,18.70
2006,07,23,06,40,18.70
2006,07,23,06,41,18.80
2006,07,23,06,42,18.80
2006,07,23,06,43,18.80
2006,07,23,06,44,18.80
2006,07,23,06,45,18.90
2006,07,23,06,46,18.90
2006,07,23,06,47,19.00
2006,07,23,06,48,19.00
2006,07,23,06,49,19.10
2006,07,23,06,50,19.10
2006,07,23,06,51,19.20
2006,07,23,06,52,19.20
2006,07,23,06,53,19.30
2006,07,23,06,54,19.40
2006,07,23,06,55,19.40
2006,07,23,06,56,19.50
2006,07,23,06,57,19.60
2006,07,23,06,58,19.60
2006,07,23,06,59,19.70
2006,07,23,07,00,19.70
2006,07,23,07,01,19.80
2006,07,23,07,02,19.80
2006,07,23,07,03,19.90
2006,07,23,07,04,20.00
2006,07,23,07,05,20.00
2006,07,23,07,06,20.10
2006,07,23,07,07,20.20
2006,07,23,07,08,20.20
2006,07,23,07,09,20.40
2006,07,23,07,10,20.50
2006,07,23,07,11,20.60
2006,07,23,07,12,20.70
2006,07,23,07,13,20.80
2006,07,23,07,14,21.00
2006,07,23,07,15,21.10
2006,07,23,07,16,21.30
2006,07,23,07,17,21.40
2006,07,23,07,18,21.50
2006,07,23,07,19,21.60
2006,07,23,07,20,21.70
2006,07,23,07,21,21.80
2006,07,23,07,22,21.90
2006,07,23,07,23,22.00
2006,07,23,07,24,22.00
2006,07,23,07,25,22.10
2006,07,23,07,26,22.10
2006,07,23,07,27,22.20
2006,07,23,07,28,22.30
2006,07,23,07,29,22.30
2006,07,23,07,30,22.40
2006,07,23,07,31,22.50
2006,07,23,07,32,22.60
2006,07,23,07,33,22.60
2006,07,23,07,34,22.70
2006,07,23,07,35,22.70
2006,07,23,07,36,22.70
2006,07,23,07,37,22.70
2006,07,23,07,38,22.60
2006,07,23,07,39,22.60
2006,07,23,07,40,22.60
2006,07,23,07,41,22.60
2006,07,23,07,42,22.60
2006,07,23,07,43,22.70
2006,07,23,07,44,22.70
2006,07,23,07,45,22.70
2006,07,23,07,46,22.70
2006,07,23,07,47,22.70
2006,07,23,07,48,22.80
2006,07,23,07,49,22.80
2006,07,23,07,50,22.80
2006,07,23,07,51,22.90
2006,07,23,07,52,22.90
2006,07,23,07,53,22.90
2006,07,23,07,54,23.00
2006,07,23,07,55,23.00
2006,07,23,07,56,23.00
2006,07,23,07,57,23.00
2006,07,23,07,58,23.10
2006,07,23,07,59,23.10
2006,07,23,08,00,23.10
2006,07,23,08,01,23.10
2006,07,23,08,02,23.10
2006,07,23,08,03,23.00
2006,07,23,08,04,23.00
2006,07,23,08,05,23.00
2006,07,23,08,06,22.90
2006,07,23,08,07,22.90
2006,07,23,08,08,23.00
2006,07,23,08,09,23.00
2006,07,23,08,10,23.10
2006,07,23,08,11,23.10
2006,07,23,08,12,23.20
2006,07,23,08,13,23.20
2006,07,23,08,14,23.30
2006,07,23,08,15,23.30
2006,07,23,08,16,23.30
2006,07,23,08,17,23.40
2006,07,23,08,18,23.40
2006,07,23,08,19,23.50
2006,07,23,08,20,23.50
2006,07,23,08,21,23.60
2006,07,23,08,22,23.60
2006,07,23,08,23,23.70
2006,07,23,08,24,23.70
2006,07,23,08,25,23.80
2006,07,23,08,26,23.80
2006,07,23,08,27,23.80
2006,07,23,08,28,23.90
2006,07,23,08,29,23.90
2006,07,23,08,30,24.00
2006,07,23,08,31,24.10
2006,07,23,08,32,24.10
2006,07,23,08,33,24.20
2006,07,23,08,34,24.20
2006,07,23,08,35,24.20
2006,07,23,08,36,24.20
2006,07,23,08,37,24.30
2006,07,23,08,38,24.40
2006,07,23,08,39,24.50
2006,07,23,08,40,24.50
2006,07,23,08,41,24.60
2006,07,23,08,42,24.60
2006,07,23,08,43,24.50
2006,07,23,08,44,24.50
2006,07,23,08,45,24.40
2006,07,23,08,46,24.40
2006,07,23,08,47,24.40
2006,07,23,08,48,24.40
2006,07,23,08,49,24.30
2006,07,23,08,50,24.30
2006,07,23,08,51,24.30
2006,07,23,08,52,24.40
2006,07,23,08,53,24.40
2006,07,23,08,54,24.50
2006,07,23,08,55,24.50
2006,07,23,08,56,24.60
2006,07,23,08,57,24.60
2006,07,23,08,58,24.70
2006,07,23,08,59,24.80
2006,07,23,09,00,24.90
2006,07,23,09,01,24.90
2006,07,23,09,02,24.90
2006,07,23,09,03,24.90
2006,07,23,09,04,24.90
2006,07,23,09,05,24.80
2006,07,23,09,06,24.80
2006,07,23,09,07,24.80
2006,07,23,09,08,24.80
2006,07,23,09,09,24.90
2006,07,23,09,10,24.90
2006,07,23,09,11,24.80
2006,07,23,09,12,24.80
2006,07,23,09,13,24.70
2006,07,23,09,14,24.80
2006,07,23,09,15,24.70
2006,07,23,09,16,24.70
2006,07,23,09,17,24.80
2006,07,23,09,18,24.90
2006,07,23,09,19,25.00
2006,07,23,09,20,25.10
2006,07,23,09,21,25.20
2006,07,23,09,22,25.30
2006,07,23,09,23,25.30
2006,07,23,09,24,25.30
2006,07,23,09,25,25.20
2006,07,23,09,26,25.20
2006,07,23,09,27,25.20
2006,07,23,09,28,25.20
2006,07,23,09,29,25.20
2006,07,23,09,30,25.20
2006,07,23,09,31,25.20
2006,07,23,09,32,25.30
2006,07,23,09,33,25.40
2006,07,23,09,34,25.60
2006,07,23,09,35,25.70
2006,07,23,09,36,25.80
2006,07,23,09,37,25.90
2006,07,23,09,38,25.90
2006,07,23,09,39,25.90
2006,07,23,09,40,25.90
2006,07,23,09,41,25.80
2006,07,23,09,42,25.70
2006,07,23,09,43,25.70
2006,07,23,09,44,25.60
2006,07,23,09,45,25.60
2006,07,23,09,46,25.60
2006,07,23,09,47,25.60
2006,07,23,09,48,25.60
2006,07,23,09,49,25.60
2006,07,23,09,50,25.60
2006,07,23,09,51,25.80
2006,07,23,09,52,25.90
2006,07,23,09,53,26.10
2006,07,23,09,54,26.30
2006,07,23,09,55,26.30
2006,07,23,09,56,26.40
2006,07,23,09,57,26.30
2006,07,23,09,58,26.20
2006,07,23,09,59,26.10
2006,07,23,10,00,26.10
2006,07,23,10,01,26.10
2006,07,23,10,02,26.00
2006,07,23,10,03,26.00
2006,07,23,10,04,25.90
2006,07,23,10,05,25.90
2006,07,23,10,06,25.90
2006,07,23,10,07,25.90
2006,07,23,10,08,25.90
2006,07,23,10,09,26.00
2006,07,23,10,10,26.10
2006,07,23,10,11,26.10
2006,07,23,10,12,26.00
2006,07,23,10,13,25.90
2006,07,23,10,14,25.90
2006,07,23,10,15,25.90
2006,07,23,10,16,25.80
2006,07,23,10,17,25.60
2006,07,23,10,18,25.60
2006,07,23,10,19,25.60
2006,07,23,10,20,25.60
2006,07,23,10,21,25.70
2006,07,23,10,22,25.80
2006,07,23,10,23,25.90
2006,07,23,10,24,25.90
2006,07,23,10,25,26.00
2006,07,23,10,26,26.10
2006,07,23,10,27,26.10
2006,07,23,10,28,26.20
2006,07,23,10,29,26.20
2006,07,23,10,30,26.20
2006,07,23,10,31,26.20
2006,07,23,10,32,26.20
2006,07,23,10,33,26.20
2006,07,23,10,34,26.20
2006,07,23,10,35,26.10
2006,07,23,10,36,26.00
2006,07,23,10,37,25.90
2006,07,23,10,38,25.90
2006,07,23,10,39,25.90
2006,07,23,10,40,25.90
2006,07,23,10,41,25.90
2006,07,23,10,42,26.00
2006,07,23,10,43,26.20
2006,07,23,10,44,26.30
2006,07,23,10,45,26.50
2006,07,23,10,46,26.40
2006,07,23,10,47,26.50
2006,07,23,10,48,26.60
2006,07,23,10,49,26.70
2006,07,23,10,50,26.80
2006,07,23,10,51,26.70
2006,07,23,10,52,26.70
2006,07,23,10,53,26.70
2006,07,23,10,54,26.70
2006,07,23,10,55,26.60
2006,07,23,10,56,26.60
2006,07,23,10,57,26.40
2006,07,23,10,58,26.40
2006,07,23,10,59,26.30
2006,07,23,11,00,26.30
2006,07,23,11,01,26.40
2006,07,23,11,02,26.50
2006,07,23,11,03,26.70
2006,07,23,11,04,26.70
2006,07,23,11,05,26.60
2006,07,23,11,06,26.60
2006,07,23,11,07,26.70
2006,07,23,11,08,26.70
2006,07,23,11,09,26.70
2006,07,23,11,10,26.70
2006,07,23,11,11,26.60
2006,07,23,11,12,26.50
2006,07,23,11,13,26.60
2006,07,23,11,14,26.60
2006,07,23,11,15,26.60
2006,07,23,11,16,26.70
2006,07,23,11,17,26.70
2006,07,23,11,18,26.70
2006,07,23,11,19,26.70
2006,07,23,11,20,26.70
2006,07,23,11,21,26.80
2006,07,23,11,22,26.80
2006,07,23,11,23,26.90
2006,07,23,11,24,27.00
2006,07,23,11,25,27.10
2006,07,23,11,26,27.20
2006,07,23,11,27,27.10
2006,07,23,11,28,27.10
2006,07,23,11,29,27.00
2006,07,23,11,30,26.90
2006,07,23,11,31,26.90
2006,07,23,11,32,26.90
2006,07,23,11,33,26.90
2006,07,23,11,34,27.00
2006,07,23,11,35,27.20
2006,07,23,11,36,27.40
2006,07,23,11,37,27.50
2006,07,23,11,38,27.60
2006,07,23,11,39,27.70
2006,07,23,11,40,27.70
2006,07,23,11,41,27.70
2006,07,23,11,42,27.50
2006,07,23,11,43,27.40
2006,07,23,11,44,27.40
2006,07,23,11,45,27.30
2006,07,23,11,46,27.40
2006,07,23,11,47,27.50
2006,07,23,11,48,27.60
2006,07,23,11,49,27.60
2006,07,23,11,50,27.60
2006,07,23,11,51,27.70
2006,07,23,11,52,27.60
2006,07,23,11,53,27.60
2006,07,23,11,54,27.60
2006,07,23,11,55,27.50
2006,07,23,11,56,27.40
2006,07,23,11,57,27.40
2006,07,23,11,58,27.40
2006,07,23,11,59,27.50
2006,07,23,12,00,27.60
2006,07,23,12,01,27.80
2006,07,23,12,02,28.10
2006,07,23,12,03,28.30
2006,07,23,12,04,28.30
2006,07,23,12,05,28.30
2006,07,23,12,06,28.40
2006,07,23,12,07,28.50
2006,07,23,12,08,28.50
2006,07,23,12,09,28.40
2006,07,23,12,10,28.20
2006,07,23,12,11,28.10
2006,07,23,12,12,28.10
2006,07,23,12,13,28.10
2006,07,23,12,14,28.20
2006,07,23,12,15,28.20
2006,07,23,12,16,28.10
2006,07,23,12,17,28.20
2006,07,23,12,18,28.20
2006,07,23,12,19,28.30
2006,07,23,12,20,28.30
2006,07,23,12,21,28.30
2006,07,23,12,22,28.20
2006,07,23,12,23,28.10
2006,07,23,12,24,28.00
2006,07,23,12,25,27.90
2006,07,23,12,26,27.80
2006,07,23,12,27,27.70
2006,07,23,12,28,27.70
2006,07,23,12,29,27.70
2006,07,23,12,30,27.80
2006,07,23,12,31,27.90
2006,07,23,12,32,27.90
2006,07,23,12,33,27.80
2006,07,23,12,34,27.70
2006,07,23,12,35,27.60
2006,07,23,12,36,27.60
2006,07,23,12,37,27.60
2006,07,23,12,38,27.70
2006,07,23,12,39,27.80
2006,07,23,12,40,27.80
2006,07,23,12,41,27.80
2006,07,23,12,42,27.80
2006,07,23,12,43,27.80
2006,07,23,12,44,27.90
2006,07,23,12,45,28.00
2006,07,23,12,46,28.10
2006,07,23,12,47,28.20
2006,07,23,12,48,28.30
2006,07,23,12,49,28.40
2006,07,23,12,50,28.50
2006,07,23,12,51,28.50
2006,07,23,12,52,28.50
2006,07,23,12,53,28.50
2006,07,23,12,54,28.50
2006,07,23,12,55,28.40
2006,07,23,12,56,28.30
2006,07,23,12,57,28.30
2006,07,23,12,58,28.30
2006,07,23,12,59,28.40
2006,07,23,13,00,28.40
2006,07,23,13,01,28.50
2006,07,23,13,02,28.50
2006,07,23,13,03,28.50
2006,07,23,13,04,28.40
2006,07,23,13,05,28.40
2006,07,23,13,06,28.40
2006,07,23,13,07,28.40
2006,07,23,13,08,28.50
2006,07,23,13,09,28.50
2006,07,23,13,10,28.60
2006,07,23,13,11,28.70
2006,07,23,13,12,28.80
2006,07,23,13,13,28.90
2006,07,23,13,14,29.00
2006,07,23,13,15,29.10
2006,07,23,13,16,29.20
2006,07,23,13,17,29.20
2006,07,23,13,18,29.30
2006,07,23,13,19,29.40
2006,07,23,13,20,29.30
2006,07,23,13,21,29.30
2006,07,23,13,22,29.20
2006,07,23,13,23,29.20
2006,07,23,13,24,29.20
2006,07,23,13,25,29.30
2006,07,23,13,26,29.40
2006,07,23,13,27,29.50
2006,07,23,13,28,29.60
2006,07,23,13,29,29.60
2006,07,23,13,30,29.50
2006,07,23,13,31,29.50
2006,07,23,13,32,29.30
2006,07,23,13,33,29.10
2006,07,23,13,34,29.10
2006,07,23,13,35,29.00
2006,07,23,13,36,29.00
2006,07,23,13,37,29.00
2006,07,23,13,38,29.10
2006,07,23,13,39,29.10
2006,07,23,13,40,29.20
2006,07,23,13,41,29.20
2006,07,23,13,42,29.30
2006,07,23,13,43,29.30
2006,07,23,13,44,29.40
2006,07,23,13,45,29.50
2006,07,23,13,46,29.50
2006,07,23,13,47,29.60
2006,07,23,13,48,29.50
2006,07,23,13,49,29.40
2006,07,23,13,50,29.30
2006,07,23,13,51,29.10
2006,07,23,13,52,29.00
2006,07,23,13,53,29.00
2006,07,23,13,54,28.90
2006,07,23,13,55,29.00
2006,07,23,13,56,29.10
2006,07,23,13,57,29.10
2006,07,23,13,58,29.10
2006,07,23,13,59,29.00
2006,07,23,14,00,29.00
2006,07,23,14,01,29.00
2006,07,23,14,02,29.00
2006,07,23,14,03,29.00
2006,07,23,14,04,29.10
2006,07,23,14,05,29.10
2006,07,23,14,06,29.10
2006,07,23,14,07,29.00
2006,07,23,14,08,28.90
2006,07,23,14,09,28.80
2006,07,23,14,10,28.80
2006,07,23,14,11,28.90
2006,07,23,14,12,28.80
2006,07,23,14,13,28.80
2006,07,23,14,14,28.80
2006,07,23,14,15,28.90
2006,07,23,14,16,28.90
2006,07,23,14,17,29.00
2006,07,23,14,18,29.00
2006,07,23,14,19,29.00
2006,07,23,14,20,29.10
2006,07,23,14,21,29.10
2006,07,23,14,22,29.20
2006,07,23,14,23,29.30
2006,07,23,14,24,29.30
2006,07,23,14,25,29.40
2006,07,23,14,26,29.40
2006,07,23,14,27,29.50
2006,07,23,14,28,29.60
2006,07,23,14,29,29.50
2006,07,23,14,30,29.60
2006,07,23,14,31,29.60
2006,07,23,14,32,29.60
2006,07,23,14,33,29.60
2006,07,23,14,34,29.60
2006,07,23,14,35,29.60
2006,07,23,14,36,29.60
2006,07,23,14,37,29.70
2006,07,23,14,38,29.80
2006,07,23,14,39,30.00
2006,07,23,14,40,30.10
2006,07,23,14,41,30.30
2006,07,23,14,42,30.40
2006,07,23,14,43,30.50
2006,07,23,14,44,30.50
2006,07,23,14,45,30.50
2006,07,23,14,46,30.40
2006,07,23,14,47,30.40
2006,07,23,14,48,30.40
2006,07,23,14,49,30.50
2006,07,23,14,50,30.60
2006,07,23,14,51,30.70
2006,07,23,14,52,30.80
2006,07,23,14,53,30.90
2006,07,23,14,54,30.90
2006,07,23,14,55,31.00
2006,07,23,14,56,31.00
2006,07,23,14,57,31.10
2006,07,23,14,58,31.00
2006,07,23,14,59,30.90
2006,07,23,15,00,30.80
2006,07,23,15,01,30.80
2006,07,23,15,02,30.80
2006,07,23,15,03,30.90
2006,07,23,15,04,30.90
2006,07,23,15,05,31.00
2006,07,23,15,06,31.00
2006,07,23,15,07,31.00
2006,07,23,15,08,30.90
2006,07,23,15,09,30.90
2006,07,23,15,10,31.00
2006,07,23,15,11,31.00
2006,07,23,15,12,30.90
2006,07,23,15,13,30.90
2006,07,23,15,14,30.80
2006,07,23,15,15,30.70
2006,07,23,15,16,30.70
2006,07,23,15,17,30.60
2006,07,23,15,18,30.50
2006,07,23,15,19,30.40
2006,07,23,15,20,30.30
2006,07,23,15,21,30.20
2006,07,23,15,22,30.20
2006,07,23,15,23,30.10
2006,07,23,15,24,29.90
2006,07,23,15,25,29.80
2006,07,23,15,26,29.70
2006,07,23,15,27,29.60
2006,07,23,15,28,29.60
2006,07,23,15,29,29.60
2006,07,23,15,30,29.60
2006,07,23,15,31,29.60
2006,07,23,15,32,29.50
2006,07,23,15,33,29.50
2006,07,23,15,34,29.60
2006,07,23,15,35,29.60
2006,07,23,15,36,29.60
2006,07,23,15,37,29.60
2006,07,23,15,38,29.40
2006,07,23,15,39,29.30
2006,07,23,15,40,29.20
2006,07,23,15,41,29.10
2006,07,23,15,42,28.90
2006,07,23,15,43,28.90
2006,07,23,15,44,28.80
2006,07,23,15,45,28.80
2006,07,23,15,46,28.80
2006,07,23,15,47,28.90
2006,07,23,15,48,28.90
2006,07,23,15,49,28.80
2006,07,23,15,50,28.80
2006,07,23,15,51,28.90
2006,07,23,15,52,28.90
2006,07,23,15,53,29.00
2006,07,23,15,54,29.10
2006,07,23,15,55,29.10
2006,07,23,15,56,29.10
2006,07,23,15,57,29.10
2006,07,23,15,58,29.10
2006,07,23,15,59,29.10
2006,07,23,16,00,29.10
2006,07,23,16,01,29.10
2006,07,23,16,02,29.10
2006,07,23,16,03,29.10
2006,07,23,16,04,29.20
2006,07,23,16,05,29.20
2006,07,23,16,06,29.30
2006,07,23,16,07,29.30
2006,07,23,16,08,29.20
2006,07,23,16,09,29.10
2006,07,23,16,10,29.10
2006,07,23,16,11,29.00
2006,07,23,16,12,28.90
2006,07,23,16,13,28.80
2006,07,23,16,14,28.80
2006,07,23,16,15,28.70
2006,07,23,16,16,28.70
2006,07,23,16,17,28.70
2006,07,23,16,18,28.70
2006,07,23,16,19,28.60
2006,07,23,16,20,28.60
2006,07,23,16,21,28.70
2006,07,23,16,22,28.60
2006,07,23,16,23,28.60
2006,07,23,16,24,28.60
2006,07,23,16,25,28.60
2006,07,23,16,26,28.60
2006,07,23,16,27,28.60
2006,07,23,16,28,28.60
2006,07,23,16,29,28.60
2006,07,23,16,30,28.60
2006,07,23,16,31,28.70
2006,07,23,16,32,28.60
2006,07,23,16,33,28.70
2006,07,23,16,34,28.70
2006,07,23,16,35,28.80
2006,07,23,16,36,28.80
2006,07,23,16,37,28.90
2006,07,23,16,38,29.00
2006,07,23,16,39,29.10
2006,07,23,16,40,29.20
2006,07,23,16,41,29.20
2006,07,23,16,42,29.20
2006,07,23,16,43,29.10
2006,07,23,16,44,29.10
2006,07,23,16,45,29.00
2006,07,23,16,46,29.00
2006,07,23,16,47,29.00
2006,07,23,16,48,29.10
2006,07,23,16,49,29.10
2006,07,23,16,50,29.10
2006,07,23,16,51,29.10
2006,07,23,16,52,29.10
2006,07,23,16,53,29.10
2006,07,23,16,54,29.20
2006,07,23,16,55,29.20
2006,07,23,16,56,29.30
2006,07,23,16,57,29.30
2006,07,23,16,58,29.40
2006,07,23,16,59,29.50
2006,07,23,17,00,29.60
2006,07,23,17,01,29.60
2006,07,23,17,02,29.60
2006,07,23,17,03,29.60
2006,07,23,17,04,29.50
2006,07,23,17,05,29.50
2006,07,23,17,06,29.50
2006,07,23,17,07,29.50
2006,07,23,17,08,29.60
2006,07,23,17,09,29.70
2006,07,23,17,10,29.80
2006,07,23,17,11,29.80
2006,07,23,17,12,29.70
2006,07,23,17,13,29.70
2006,07,23,17,14,29.60
2006,07,23,17,15,29.50
2006,07,23,17,16,29.40
2006,07,23,17,17,29.40
2006,07,23,17,18,29.40
2006,07,23,17,19,29.50